Lexington Weather

Lexington, Massachusetts, USA

77°F
7/25/2024 11:49am 
  • Lexington Conditions: Mostly cloudy
  • Temperature: 77.0°F / 25.0°CWarmer 0.9°F than last hour.
  • Dew Point: 72.1°FIncreased 0.1°Fsince last hour.
  • Relative Humidity: 85%Decreased 2.0% since last hour.
  • Wind: Wind from SW SW 2 mph, 10-min avg: 2 mph, gust: 10 mph
  • Barometer: 29.94 inFalling 0.02  inHg/hr Falling Slowly
  • Visibility: 10 miles
  • Rain Today: 0.00 in
  •   

Regional Weather Roundup
for Boston, MA

        
000
ASUS41 KBOX 241410
RWRBOX

REGIONAL WEATHER ROUNDUP
NATIONAL WEATHER SERVICE BOSTON/NORTON MA
1000 AM EDT WED JUL 24 2024

NOTE:  "FAIR" INDICATES FEW OR NO CLOUDS BELOW 12,000 FEET WITH NO 
SIGNIFICANT WEATHER AND/OR OBSTRUCTIONS TO VISIBILITY.

MAZALL-241500-
EASTERN MASSACHUSETTS
  
CITY           SKY/WX    TMP DP  RH WIND       PRES   REMARKS
BOSTON         CLOUDY    67  62  84 E12       30.20R                  
BEVERLY        CLOUDY    68  64  87 SE10      30.19S                  
LAWRENCE       CLOUDY    71  64  78 VRB5      30.21R                  
BEDFORD        CLOUDY    72  63  73 SE9       30.18S                  
NORWOOD        CLOUDY    72  67  84 SE6       30.19R                  
MARSHFIELD     CLOUDY    66  63  88 SE7       30.20R                  
PLYMOUTH       CLOUDY    68  64  87 E6        30.19R                  
TAUNTON        CLOUDY    71  64  78 VRB7      30.18R                  
NEW BEDFORD    CLOUDY    69  66  90 SE8       30.18R                  
$$

MAZALL-241500-
CAPE COD AND THE ISLANDS
  
CITY           SKY/WX    TMP DP  RH WIND       PRES   REMARKS
FALMOUTH       CLOUDY    64  63  94 SE10      30.20S                  
HYANNIS        CLOUDY    64  63  96 SE8       30.18R                  
CHATHAM        CLOUDY    65  63  93 SE8       30.20F                  
PROVINCETOWN   PTSUNNY   69  65  86 SE9       30.21R                  
NANTUCKET      FOG       63  63 100 E9        30.19S VSB 1/4          
MARTHAS VNYRD  FOG       67  65  93 E7        30.18S VSB 1            
$$
 
MAZALL-241500-
CENTRAL AND WESTERN MASSACHUSETTS
  
CITY           SKY/WX    TMP DP  RH WIND       PRES   REMARKS
WORCESTER      CLOUDY    68  66  93 E3        30.21R FOG              
FITCHBURG      CLOUDY    72  64  76 SE8       30.19S                  
ORANGE           N/A     71  66  84 SE7       30.19R                  
SPRINGFIELD    CLOUDY    72  68  87 SE3       30.14S                  
WESTFIELD      CLOUDY    72  68  87 S5        30.17R                  
NORTH ADAMS    PTSUNNY   75  66  73 E9        30.15S                  
PITTSFIELD     CLOUDY    72  66  81 SE5       30.17R                  
$$
 
RIZALL-241500-
RHODE ISLAND
  
CITY           SKY/WX    TMP DP  RH WIND       PRES   REMARKS
PROVIDENCE     CLOUDY    70  67  90 SE7       30.18S                  
NEWPORT        CLOUDY    67  66  97 VRB7      30.18R FOG              
BLOCK ISLAND   CLOUDY    70  70 100 E10         N/A  FOG              
SMITHFIELD     CLOUDY    69  69 100 E5        30.20R                  
WESTERLY       CLOUDY    70  67  90 NE7       30.17R FOG              
$$
 
CTZALL-241500-
CONNECTICUT
  
CITY           SKY/WX    TMP DP  RH WIND       PRES   REMARKS
BRADLEY INTL   CLOUDY    74  67  78 SE6       30.17R                  
HARTFORD       CLOUDY    73  68  84 E3        30.16R                  
PLAINVILLE     CLOUDY    71  69  93 E3        30.17R                  
BRIDGEPORT     LGT RAIN  72  70  93 E14       30.15R FOG              
DANBURY        CLOUDY    73  71  93 E6        30.17R                  
GROTON         CLOUDY    71  70  96 NE9       30.16R                  
NEW HAVEN      CLOUDY    75  72  90 E7        30.15S                  
CHESTER        CLOUDY    70  70 100 E5        30.18S FOG              
MERIDEN        LGT RAIN  72  67  84 CALM      30.16S                  
WILLIMANTIC    CLOUDY    70  67  90 CALM      30.19R                  
OXFORD         LGT RAIN  70  70 100 E5        30.19R VSB 1/2          
$$

MEZ002-015-021-024-NHZ003-005-008-011-012-014-VTZ005-008-241500-
NORTHERN NEW ENGLAND
  
CITY           SKY/WX    TMP DP  RH WIND       PRES   REMARKS
PORTLAND ME    CLOUDY    69  66  90 S8        30.22R                  
BANGOR ME      LGT RAIN  66  64  93 E5        30.24S                  
CONCORD NH     CLOUDY    70  64  81 SE7       30.19S                  
MANCHESTER NH  PTSUNNY   73  64  73 E6        30.18R                  
NASHUA NH      CLOUDY    72  70  93 SE6       30.20R                  
PORTSMOUTH NH  CLOUDY    71  64  78 SE13      30.19R                  
JAFFREY NH     CLOUDY    69  65  86 CALM      30.21R                  
KEENE NH       CLOUDY    71  67  87 S6        30.17S                  
BURLINGTON VT  PTSUNNY   79  66  64 S14       30.11F                  
MT. WASHINGTON DRZL/FOG  54  54 100 SW7         N/A  VSB 1/16         
$$

NYZ052-076-241500-
EASTERN NEW YORK
  
CITY           SKY/WX    TMP DP  RH WIND       PRES   REMARKS
ALBANY         CLOUDY    75  68  78 S7        30.14R                  
NEW YORK CITY  LGT RAIN  72  70  93 NE10      30.12F FOG              
$$
 
ANZALL-241500-
MARINE OBSERVATIONS
  
STATION/POSITION TIME  TEMP    WIND        PRES    VSBY  WAVE
                       AIR SEA DIR/SP/G                  HT/PER
                 (UTC) (F)     (DEG/KT/KT) (MB)    (MI)  (FT/S)
BOSTON BUOY      1350   65 65  140/  4/  6 1023.0S         2/ 6
BUZZARDS BAY     1300   65      90/ 15/ 16 1021.7F
NANTUCKET SOUND  1350   66 75  120/ 14/ 16 1021.5F         2/ 4
MASS BAY-STELLWA 1204   66 64  130/  4/  4 1023.1R  1 7/8  2/ 6
ISLE OF SHOALS   1300   66     170/  9/ 10 1022.1S
S OF BLOCK IS    1356      74                N/A           4/ 7
$$

......................KEY.........................
  SKY/WX - SKY CONDITION/PRESENT WEATHER
  TMP    - TEMPERATURE IN FAHRENHEIT
  DWPT   - DEWPOINT IN FAHRENHEIT
  RH     - RELATIVE HUMIDITY IN PERCENT
  WIND   - DIRECTION AND SPEED IN MPH
  PRES   - MEAN SEA LEVEL PRESSURE IN INCHES OF HG
  WCI    - WIND CHILL INDEX
  VSB    - VISIBILITY IN MILES
  HX     - HEAT INDEX
  TC     - TEMPERATURE IN CELSIUS
  VRB    - VARIABLE WIND DIRECTION
  N/A    - NOT AVAILABLE
  
      

Other recent Regional Weather Roundups

Thu Jul 25, 11:10am EDT

Thu Jul 25, 10:10am EDT

Thu Jul 25, 9:10am EDT

Thu Jul 25, 8:10am EDT

Thu Jul 25, 7:10am EDT

Thu Jul 25, 6:10am EDT

Thu Jul 25, 5:10am EDT

Thu Jul 25, 4:10am EDT

Thu Jul 25, 3:10am EDT

Thu Jul 25, 2:10am EDT

Thu Jul 25, 1:10am EDT

Thu Jul 25, 12:10am EDT

Wed Jul 24, 11:10pm EDT

Wed Jul 24, 10:10pm EDT

Wed Jul 24, 9:10pm EDT

Wed Jul 24, 8:10pm EDT

Wed Jul 24, 7:10pm EDT

Wed Jul 24, 6:10pm EDT

Wed Jul 24, 5:10pm EDT

Wed Jul 24, 4:10pm EDT

Wed Jul 24, 3:10pm EDT

Wed Jul 24, 2:10pm EDT

Wed Jul 24, 1:10pm EDT

Wed Jul 24, 12:10pm EDT

Wed Jul 24, 11:10am EDT

Wed Jul 24, 9:10am EDT

Wed Jul 24, 8:10am EDT

Wed Jul 24, 7:10am EDT

Wed Jul 24, 6:10am EDT

Wed Jul 24, 5:10am EDT

Wed Jul 24, 4:10am EDT

Wed Jul 24, 3:10am EDT

Wed Jul 24, 2:10am EDT

Wed Jul 24, 1:10am EDT

Wed Jul 24, 12:10am EDT

Tue Jul 23, 11:10pm EDT

Tue Jul 23, 10:10pm EDT

Tue Jul 23, 9:10pm EDT

Tue Jul 23, 8:10pm EDT

Tue Jul 23, 7:10pm EDT

Tue Jul 23, 6:10pm EDT

Tue Jul 23, 5:10pm EDT

Tue Jul 23, 4:10pm EDT

Tue Jul 23, 3:10pm EDT

Tue Jul 23, 2:10pm EDT

Tue Jul 23, 1:10pm EDT

Tue Jul 23, 12:10pm EDT

Tue Jul 23, 11:10am EDT

Tue Jul 23, 10:10am EDT

Tue Jul 23, 10:10am EDT

Tue Jul 23, 9:10am EDT

Tue Jul 23, 8:10am EDT

Tue Jul 23, 7:10am EDT

Tue Jul 23, 6:10am EDT

Tue Jul 23, 5:10am EDT

Tue Jul 23, 4:10am EDT

Tue Jul 23, 3:10am EDT

Tue Jul 23, 2:10am EDT

Tue Jul 23, 1:10am EDT

Tue Jul 23, 12:10am EDT

Mon Jul 22, 11:10pm EDT

Mon Jul 22, 10:10pm EDT

Mon Jul 22, 9:10pm EDT

Mon Jul 22, 8:10pm EDT

Mon Jul 22, 7:10pm EDT

Mon Jul 22, 6:10pm EDT

Mon Jul 22, 5:10pm EDT

Mon Jul 22, 4:10pm EDT

Mon Jul 22, 3:10pm EDT

Mon Jul 22, 2:10pm EDT

Mon Jul 22, 1:10pm EDT

Mon Jul 22, 12:10pm EDT

Mon Jul 22, 11:10am EDT

Mon Jul 22, 10:10am EDT

Mon Jul 22, 9:10am EDT

Mon Jul 22, 8:10am EDT

Mon Jul 22, 7:10am EDT

Mon Jul 22, 6:10am EDT

Mon Jul 22, 5:10am EDT

Mon Jul 22, 4:10am EDT

Mon Jul 22, 3:10am EDT

Mon Jul 22, 2:10am EDT

Mon Jul 22, 1:10am EDT

Mon Jul 22, 12:10am EDT

Sun Jul 21, 11:10pm EDT

Sun Jul 21, 10:10pm EDT

Sun Jul 21, 9:10pm EDT

Sun Jul 21, 8:10pm EDT

Sun Jul 21, 7:10pm EDT

Sun Jul 21, 6:10pm EDT

Sun Jul 21, 5:10pm EDT

Sun Jul 21, 4:10pm EDT

Sun Jul 21, 3:10pm EDT

Sun Jul 21, 2:10pm EDT

Sun Jul 21, 1:10pm EDT

Sun Jul 21, 12:10pm EDT

Sun Jul 21, 11:10am EDT

Sun Jul 21, 10:10am EDT

Sun Jul 21, 9:10am EDT

Sun Jul 21, 8:10am EDT

Sun Jul 21, 7:10am EDT

Sun Jul 21, 6:10am EDT

Sun Jul 21, 5:10am EDT

Sun Jul 21, 4:10am EDT

Sun Jul 21, 3:10am EDT

Sun Jul 21, 2:10am EDT

Sun Jul 21, 1:10am EDT

Sun Jul 21, 12:10am EDT

Sat Jul 20, 11:10pm EDT

Sat Jul 20, 10:10pm EDT

Sat Jul 20, 9:10pm EDT

Sat Jul 20, 8:10pm EDT

Sat Jul 20, 7:10pm EDT

Sat Jul 20, 6:10pm EDT

Sat Jul 20, 5:10pm EDT

Sat Jul 20, 4:10pm EDT

Sat Jul 20, 3:10pm EDT

Sat Jul 20, 2:10pm EDT

Sat Jul 20, 1:10pm EDT

Sat Jul 20, 12:10pm EDT

Sat Jul 20, 11:10am EDT

Sat Jul 20, 10:10am EDT

Sat Jul 20, 9:10am EDT

Sat Jul 20, 8:10am EDT

Sat Jul 20, 7:10am EDT

Sat Jul 20, 6:10am EDT

Sat Jul 20, 5:10am EDT

Sat Jul 20, 4:10am EDT

Sat Jul 20, 3:10am EDT

Sat Jul 20, 2:10am EDT

Sat Jul 20, 1:10am EDT

Sat Jul 20, 12:10am EDT

Fri Jul 19, 11:10pm EDT

Fri Jul 19, 10:10pm EDT

Fri Jul 19, 9:10pm EDT

Fri Jul 19, 8:10pm EDT

Fri Jul 19, 7:10pm EDT

Fri Jul 19, 6:10pm EDT

Fri Jul 19, 5:10pm EDT

Fri Jul 19, 4:10pm EDT

Fri Jul 19, 3:10pm EDT

Fri Jul 19, 2:10pm EDT

Fri Jul 19, 1:10pm EDT

Fri Jul 19, 12:10pm EDT

Fri Jul 19, 11:10am EDT

Fri Jul 19, 10:10am EDT

Fri Jul 19, 9:10am EDT

Fri Jul 19, 8:10am EDT

Fri Jul 19, 7:10am EDT

Fri Jul 19, 6:10am EDT

Fri Jul 19, 5:10am EDT

Fri Jul 19, 4:10am EDT

Fri Jul 19, 3:10am EDT

Fri Jul 19, 2:10am EDT

Fri Jul 19, 1:10am EDT

Fri Jul 19, 12:10am EDT

Thu Jul 18, 11:10pm EDT

Thu Jul 18, 10:10pm EDT

Thu Jul 18, 9:10pm EDT

Thu Jul 18, 8:10pm EDT

Thu Jul 18, 7:10pm EDT

Thu Jul 18, 6:10pm EDT

Thu Jul 18, 5:10pm EDT

Thu Jul 18, 4:10pm EDT

Thu Jul 18, 3:10pm EDT

Thu Jul 18, 2:10pm EDT

Thu Jul 18, 1:10pm EDT

Thu Jul 18, 12:10pm EDT